Starlink 5291

operational
NORAD ID: 55273 Int'l Des: 2023-010 Owner: SPXS Country: US Constellation: starlink
LEOCIRCULAR

Starlink 5291について

説明を読み込み中...

リアルタイム位置

3D地球を読み込み中...

次回通過

高度履歴

Altitude vs Time

uPlot chart will show altitude changes over time

軌道要素

1 55273U 23010E 25304.60352484 .00000224 00000-0 26537-4 0 9999
2 55273 70.0006 9.7913 0002956 269.3490 90.7330 14.98333765153450
Epoch: Oct 31, 2025 • Age: 13 hours

現在のステータス

高度 592.0 km
速度 7.56 km/s
衛星直下点 -57.91°S, 112.7°W
打ち上げ日 Jan 19, 2023
運用期間 2.7 years
タイプ internet

技術仕様

分類 Payload
質量 305.00 kg
乾燥質量 290.00 kg
総質量 305.00 kg
長さ 0.20 m
直径 2.80 m
スパン 9.00 m
形状 Box + pan
製造者 SPXS
バスタイプ Starlink
フェーズステータス In Orbit
所有者/国 SPXS/US

大規模コンステレーション

Loading constellations...